When you browse on this site, cookies collect data to enhance your experience and personalize the content and advertising you see.
Visit our Privacy Policy to learn more. By continuing to use the site, you agree to this use of cookies and data.
  • In Denmark
  • List of Countries
  • For 7 days
  • Water Temperature
  • Weather Map
  • Weather Widgets
  • user-avatar
    Login

    Hourly Weather Etchmiadzin

    Today, 17 August, Saturday

    Time Temperature Precipitation Wind Pressure Humidity
    00:00 +30°C° 0 mm 3 mps 684 mmHg 42%
    01:00 +29°C° 0 mm 3 mps 684 mmHg 46%
    02:00 +28°C° 0 mm 3 mps 684 mmHg 49%
    03:00 +27°C° 0 mm 2 mps 683 mmHg 55%
    04:00 +27°C° 0 mm 2 mps 683 mmHg 54%
    05:00 +27°C° 0 mm 2 mps 684 mmHg 54%
    06:00 +27°C° 0 mm 3 mps 684 mmHg 53%
    07:00 +30°C° 0 mm 3 mps 684 mmHg 47%
    08:00 +32°C° 0 mm 2 mps 685 mmHg 41%
    09:00 +35°C° 0 mm 2 mps 685 mmHg 35%
    10:00 +37°C° 0 mm 2 mps 685 mmHg 30%
    11:00 +38°C° 0 mm 2 mps 685 mmHg 26%
    12:00 +40°C° 0 mm 2 mps 684 mmHg 21%
    13:00 +41°C° 0 mm 4 mps 684 mmHg 22%
    14:00 +40°C° 0 mm 5 mps 684 mmHg 22%
    15:00 +40°C° 0 mm 6 mps 683 mmHg 23%
    16:00 +39°C° 0.1 mm 6 mps 683 mmHg 26%
    17:00 +36°C° 0.1 mm 6 mps 683 mmHg 30%
    18:00 +35°C° 0.1 mm 6 mps 683 mmHg 33%
    19:00 +33°C° 0 mm 6 mps 683 mmHg 37%
    20:00 +32°C° 0 mm 5 mps 684 mmHg 40%
    21:00 +30°C° 0 mm 5 mps 684 mmHg 44%
    22:00 +29°C° 0 mm 4 mps 684 mmHg 45%
    23:00 +28°C° 0 mm 4 mps 684 mmHg 46%

    Tomorrow, 18 August, Sunday

    Time Temperature Precipitation Wind Pressure Humidity
    00:00 +27°C° 0 mm 3 mps 684 mmHg 48%
    01:00 +26°C° 0 mm 3 mps 684 mmHg 48%
    02:00 +26°C° 0 mm 3 mps 684 mmHg 48%
    03:00 +25°C° 0 mm 2 mps 684 mmHg 48%
    04:00 +25°C° 0 mm 2 mps 684 mmHg 48%
    05:00 +26°C° 0 mm 2 mps 684 mmHg 47%
    06:00 +26°C° 0 mm 2 mps 684 mmHg 46%
    07:00 +28°C° 0 mm 2 mps 685 mmHg 41%
    08:00 +30°C° 0 mm 2 mps 685 mmHg 35%
    09:00 +32°C° 0 mm 2 mps 685 mmHg 30%
    10:00 +35°C° 0 mm 3 mps 685 mmHg 26%
    11:00 +37°C° 0 mm 3 mps 685 mmHg 22%
    12:00 +40°C° 0 mm 4 mps 685 mmHg 18%
    13:00 +41°C° 0 mm 5 mps 685 mmHg 16%
    14:00 +42°C° 0 mm 6 mps 685 mmHg 14%
    15:00 +44°C° 0 mm 6 mps 685 mmHg 12%
    16:00 +41°C° 0 mm 5 mps 685 mmHg 16%
    17:00 +40°C° 0 mm 4 mps 685 mmHg 20%
    18:00 +37°C° 0 mm 3 mps 685 mmHg 24%
    19:00 +35°C° 0 mm 3 mps 685 mmHg 27%
    20:00 +33°C° 0 mm 3 mps 686 mmHg 30%
    21:00 +30°C° 0 mm 3 mps 686 mmHg 33%
    22:00 +29°C° 0 mm 3 mps 686 mmHg 34%
    23:00 +28°C° 0 mm 3 mps 686 mmHg 36%

    Day after tomorrow, 19 August, Monday

    Time Temperature Precipitation Wind Pressure Humidity
    00:00 +26°C° 0 mm 3 mps 686 mmHg 37%
    01:00 +26°C° 0 mm 3 mps 686 mmHg 38%
    02:00 +25°C° 0 mm 3 mps 686 mmHg 38%
    03:00 +24°C° 0 mm 2 mps 686 mmHg 38%
    04:00 +24°C° 0 mm 2 mps 686 mmHg 37%
    05:00 +24°C° 0 mm 2 mps 687 mmHg 37%
    06:00 +24°C° 0 mm 2 mps 687 mmHg 36%
    07:00 +27°C° 0 mm 2 mps 687 mmHg 31%
    08:00 +30°C° 0 mm 2 mps 688 mmHg 27%
    09:00 +32°C° 0 mm 1 mps 688 mmHg 22%
    10:00 +36°C° 0 mm 2 mps 688 mmHg 19%
    11:00 +38°C° 0 mm 2 mps 688 mmHg 16%
    12:00 +40°C° 0 mm 3 mps 689 mmHg 14%
    13:00 +42°C° 0 mm 4 mps 689 mmHg 12%
    14:00 +43°C° 0 mm 5 mps 689 mmHg 11%
    15:00 +45°C° 0 mm 6 mps 689 mmHg 10%
    16:00 +43°C° 0 mm 5 mps 689 mmHg 13%
    17:00 +41°C° 0 mm 5 mps 689 mmHg 16%
    18:00 +40°C° 0 mm 5 mps 689 mmHg 19%
    19:00 +36°C° 0 mm 5 mps 689 mmHg 23%
    20:00 +33°C° 0 mm 4 mps 689 mmHg 28%
    21:00 +29°C° 0 mm 3 mps 689 mmHg 32%
    22:00 +28°C° 0 mm 3 mps 689 mmHg 33%
    23:00 +27°C° 0 mm 3 mps 689 mmHg 33%

    20 August, Tuesday

    Time Temperature Precipitation Wind Pressure Humidity
    00:00 +26°C° 0 mm 3 mps 689 mmHg 34%
    01:00 +25°C° 0 mm 2 mps 689 mmHg 33%
    02:00 +24°C° 0 mm 2 mps 689 mmHg 33%
    03:00 +24°C° 0 mm 2 mps 689 mmHg 33%
    04:00 +24°C° 0 mm 2 mps 689 mmHg 32%
    05:00 +24°C° 0 mm 2 mps 689 mmHg 31%
    06:00 +24°C° 0 mm 1 mps 689 mmHg 30%
    07:00 +26°C° 0 mm 1 mps 690 mmHg 26%
    08:00 +29°C° 0 mm 1 mps 690 mmHg 22%
    09:00 +32°C° 0 mm 1 mps 691 mmHg 18%
    10:00 +35°C° 0 mm 2 mps 691 mmHg 17%
    11:00 +37°C° 0 mm 2 mps 690 mmHg 15%
    12:00 +38°C° 0 mm 2 mps 690 mmHg 14%
    13:00 +40°C° 0 mm 3 mps 690 mmHg 13%
    14:00 +42°C° 0 mm 3 mps 690 mmHg 12%
    15:00 +43°C° 0 mm 4 mps 690 mmHg 11%
    16:00 +41°C° 0 mm 4 mps 689 mmHg 13%
    17:00 +40°C° 0 mm 5 mps 689 mmHg 16%
    18:00 +39°C° 0 mm 5 mps 689 mmHg 19%
    19:00 +35°C° 0 mm 5 mps 689 mmHg 22%
    20:00 +33°C° 0 mm 5 mps 689 mmHg 26%
    21:00 +29°C° 0 mm 4 mps 689 mmHg 29%
    22:00 +28°C° 0 mm 3 mps 689 mmHg 31%
    23:00 +26°C° 0 mm 3 mps 689 mmHg 32%

    21 August, Wednesday

    Time Temperature Precipitation Wind Pressure Humidity
    00:00 +25°C° 0 mm 2 mps 688 mmHg 34%
    01:00 +24°C° 0 mm 2 mps 688 mmHg 34%
    02:00 +23°C° 0 mm 2 mps 688 mmHg 34%
    03:00 +23°C° 0 mm 2 mps 688 mmHg 35%
    04:00 +23°C° 0 mm 1 mps 688 mmHg 34%
    05:00 +23°C° 0 mm 1 mps 688 mmHg 33%
    06:00 +23°C° 0 mm 1 mps 688 mmHg 33%
    07:00 +26°C° 0 mm 1 mps 689 mmHg 28%
    08:00 +29°C° 0 mm 1 mps 689 mmHg 23%
    09:00 +32°C° 0 mm 1 mps 690 mmHg 18%
    10:00 +35°C° 0 mm 2 mps 690 mmHg 17%
    11:00 +36°C° 0 mm 2 mps 689 mmHg 15%
    12:00 +38°C° 0 mm 3 mps 689 mmHg 14%
    13:00 +39°C° 0 mm 3 mps 689 mmHg 13%
    14:00 +40°C° 0 mm 3 mps 689 mmHg 12%
    15:00 +42°C° 0 mm 4 mps 688 mmHg 11%
    16:00 +41°C° 0 mm 4 mps 688 mmHg 14%
    17:00 +40°C° 0 mm 4 mps 688 mmHg 17%
    18:00 +37°C° 0 mm 5 mps 687 mmHg 19%
    19:00 +35°C° 0 mm 5 mps 687 mmHg 24%
    20:00 +32°C° 0 mm 5 mps 687 mmHg 28%
    21:00 +29°C° 0 mm 5 mps 687 mmHg 32%
    22:00 +27°C° 0 mm 4 mps 687 mmHg 34%
    23:00 +26°C° 0 mm 3 mps 687 mmHg 36%

    22 August, Thursday

    Time Temperature Precipitation Wind Pressure Humidity
    00:00 +25°C° 0 mm 2 mps 687 mmHg 38%
    01:00 +24°C° 0 mm 2 mps 687 mmHg 39%
    02:00 +23°C° 0 mm 2 mps 687 mmHg 39%
    03:00 +23°C° 0 mm 1 mps 686 mmHg 40%
    04:00 +23°C° 0 mm 1 mps 686 mmHg 39%
    05:00 +23°C° 0 mm 1 mps 687 mmHg 39%
    06:00 +23°C° 0 mm 1 mps 687 mmHg 38%
    07:00 +26°C° 0 mm 1 mps 687 mmHg 33%
    08:00 +29°C° 0 mm 1 mps 687 mmHg 27%
    09:00 +32°C° 0 mm 2 mps 687 mmHg 22%
    10:00 +35°C° 0 mm 2 mps 687 mmHg 19%
    11:00 +36°C° 0 mm 3 mps 687 mmHg 16%
    12:00 +38°C° 0 mm 3 mps 687 mmHg 14%
    13:00 +40°C° 0 mm 4 mps 686 mmHg 13%
    14:00 +41°C° 0 mm 4 mps 686 mmHg 12%
    15:00 +42°C° 0 mm 4 mps 686 mmHg 11%
    16:00 +41°C° 0 mm 5 mps 686 mmHg 13%
    17:00 +40°C° 0 mm 5 mps 685 mmHg 16%
    18:00 +38°C° 0 mm 6 mps 685 mmHg 19%
    19:00 +35°C° 0 mm 5 mps 685 mmHg 24%
    20:00 +32°C° 0 mm 5 mps 685 mmHg 28%
    21:00 +28°C° 0 mm 5 mps 686 mmHg 32%
    22:00 +27°C° 0 mm 4 mps 686 mmHg 34%
    23:00 +26°C° 0 mm 3 mps 685 mmHg 36%
    Show more